www.pogodaiklimat.ru
ПОГОДА в Лиешеке

Архив погоды в Лиешеке (Словакия)

Время
(UTC), дата
10 6.07
11 6.07
12 6.07
13 6.07
14 6.07
15 6.07
16 6.07
17 6.07
18 6.07
19 6.07
21 6.07
00 7.07
01 7.07
02 7.07
03 7.07
04 7.07
05 7.07
06 7.07
07 7.07
08 7.07
09 7.07
10 7.07
11 7.07
12 7.07
13 7.07
14 7.07
15 7.07
16 7.07
17 7.07
18 7.07
19 7.07
20 7.07
21 7.07
22 7.07
23 7.07
00 8.07
01 8.07
02 8.07
03 8.07
04 8.07
05 8.07
06 8.07
07 8.07
08 8.07
09 8.07
10 8.07
11 8.07
12 8.07
13 8.07
14 8.07
15 8.07
16 8.07
17 8.07
18 8.07
19 8.07
20 8.07
21 8.07
22 8.07
23 8.07
00 9.07
01 9.07
02 9.07
03 9.07
04 9.07
05 9.07
06 9.07
07 9.07
08 9.07
09 9.07
10 9.07
11 9.07
12 9.07
13 9.07
14 9.07
15 9.07
16 9.07
17 9.07
18 9.07
19 9.07
20 9.07
21 9.07
22 9.07
23 9.07
00 10.07
01 10.07
02 10.07
03 10.07
04 10.07
05 10.07
06 10.07
07 10.07
08 10.07
09 10.07
10 10.07
11 10.07
12 10.07
13 10.07
14 10.07
15 10.07
16 10.07
17 10.07
18 10.07
20 10.07
21 10.07
22 10.07
23 10.07
00 11.07
01 11.07
02 11.07
03 11.07
04 11.07
05 11.07
06 11.07
07 11.07
08 11.07
09 11.07
10 11.07
11 11.07
12 11.07
13 11.07
14 11.07
15 11.07
16 11.07
17 11.07
18 11.07
19 11.07
20 11.07
21 11.07
22 11.07
23 11.07
00 12.07
01 12.07
02 12.07
03 12.07
04 12.07
05 12.07
06 12.07
07 12.07
08 12.07
09 12.07
10 12.07
11 12.07
12 12.07
13 12.07
14 12.07
15 12.07
16 12.07
17 12.07
18 12.07
19 12.07
20 12.07
21 12.07
22 12.07
23 12.07
00 13.07
01 13.07
02 13.07
03 13.07
05 13.07
06 13.07
07 13.07
08 13.07
09 13.07
Ветер
(напр.,м/с)
Видим. Явления Облачность Т
(С)
Тd
(С)
f
(%)
Тe
(С)
Тes
(С)
Комфортность P
(гПа)
Po
(гПа)
Тmin
(С)
Tmax
(С)
R
(мм)
R24
(мм)
S
(см)
ЮЗ 6 70 км 9/1 1500 м
[Cu med, cong Ac lent Cs]
+26.0 +11.4 40 +27 +31 жарко 1011.0 935.0
ЮЗ 7 70 км 9/1 1500 м
[Cu med, cong Ac lent Cs]
+24.9 +10.8 41 +26 +29 жарко 1011.1 934.8
Ю 5 70 км 9/1 1500 м
[Cu med, cong Ac lent Cs]
+25.6 +9.9 37 +26 +31 жарко 1010.6 934.5
Ю 4 70 км 9/1 1500 м
[Cu med, cong Ac lent Cs]
+25.0 +10.1 39 +26 +31 жарко 1010.3 934.1
Ю 5 >70 км 9/1 1500 м
[Cu med, cong Ac lent Cs]
+24.4 +10.3 41 +25 +28 комфорт 1009.8 933.5
Ю 5 >70 км 6/1 1500 м
[Cu med, cong Ac lent Ci sp]
+24.2 +10.9 43 +25 +28 комфорт 1009.4 933.1
Ю 5 >70 км 4/1 1500 м
[Cu med, cong Ac lent Ci sp]
+25.3 +11.1 41 +27 +28 жарко 1008.8 932.8
Ю 4 >70 км 1/1 1500 м
[Cu med, cong Ac lent Ci sp]
+24.4 +10.3 41 +25 +26 комфорт 1008.7 932.5
Ю 3 >70 км 1/1 1500 м
[Cu med, cong Ac lent Ci fib]
+23.3 +10.4 44 +25 +25 комфорт 1008.5 932.0 +26.8
Ю 2 65 км 1/1 1500 м
[Sc diur, vesp Ac lent Ci fib]
+21.4 +10.9 51 +23 +23 комфорт 1008.7 931.7
нст 2 н/о н/о +18.1 +10.7 62 +19 +19 1009.6 931.7
Ю 4 н/о н/о +21.2 +11.0 52 +23 +23 комфорт 1009.1 932.1
Ю 3 н/о н/о +21.4 +11.7 54 +23 +23 комфорт 1009.1 932.1
С 2 н/о н/о +18.9 +11.7 63 +20 +20 1010.0 932.3
С 3 н/о н/о +17.6 +12.1 70 +18 +18 1010.6 932.6
З 2 н/о н/о +19.3 +12.8 66 +21 +21 комфорт 1010.4 932.8
ЮЗ 2 н/о н/о +20.5 +13.2 63 +23 +23 комфорт 1010.5 933.2
З 3 65 км 1/1 1500 м
[Cu hum Ac lent Ci fib]
+22.3 +13.9 59 +25 +29 комфорт 1010.5 933.7 +16.9
ЮЗ 3 65 км 1/1 1500 м
[Cu hum Ac lent Ci fib]
+23.7 +13.9 54 +26 +33 жарко 1010.5 934.1
ЮЗ 2 65 км 3/1 1500 м
[Cu hum Ac lent Ci sp]
+24.3 +14.7 55 +27 +37 жарко 1010.8 934.5
нст 2 60 км 4/1 1500 м
[Cu hum Ac lent Ci sp]
+25.9 +14.7 50 +28 +40 жарко 1010.6 934.7
СЗ 3 60 км 5/3 1500 м
[Cu med, cong Ac lent Ci sp]
+26.1 +15.5 52 +29 +38 жарко 1010.6 934.8
С 3 60 км 6/5 1500 м
[Cu med, cong Ac lent Ci sp]
+25.1 +16.6 59 +29 +35 душно 1010.9 934.9
С 5 50 км 8/6 1500 м
[Cu med, cong Ac lent Ci fib]
+24.8 +17.3 63 +29 +31 душно 1011.0 934.9
С 3 50 км 9/8 1500 м
[Cu med, cong Ac lent Ci sp]
+22.9 +17.2 70 +28 +30 душно 1012.2 935.5
СЗ 5 50 км 9/9 1000 м
[Cu med, cong]
+21.1 +16.9 77 +25 +25 комфорт 1013.1 935.9
С 2 50 км 9/9 1000 м
[Cu med, cong]
+21.2 +16.8 76 +25 +26 комфорт 1013.5 936.3
В 3 40 км 8/8 800 м
[Cu med, cong]
+21.6 +17.2 76 +26 +26 душно 1013.4 936.3
В 2 50 км 9/9 600 м
[Cb cap Ac cuf Ci ing]
+20.4 +17.4 83 +24 +24 комфорт 1013.9 936.5
В 3 15 км гроза, ливневой дождь 9/9 90 м
[Cb cap Ac cuf Ci ing]
+18.5 +17.2 92 +19 +19 1014.8 936.8 +26.6 3
СВ 2 20 км {гроза, ливн. дождь} 5/5 90 м
[Cu med, cong Ac lent Ci fib]
+17.1 +16.4 96 +17 +17 1015.7 937.3 0.1
В 2 8000 м дымка 10/10 90 м
[Sc diur, vesp]
+16.9 +16.2 96 +17 +17 1015.9 937.4
В 1 н/о н/о +17.0 +16.4 96 +18 +18 1016.0 937.5
В 1 н/о н/о +17.1 +16.4 96 +18 +18 1016.2 937.7
штиль 0 н/о н/о +17.2 +16.6 96 +17 +17 1016.3 937.9
В 1 н/о н/о +17.1 +16.6 97 +18 +18 1016.0 937.6
СВ 2 н/о н/о +17.0 +16.5 97 +17 +17 1015.9 937.4
штиль 0 н/о н/о +16.8 +16.3 97 +17 +17 1016.0 937.5
нст 1 н/о н/о +17.0 +16.5 97 +18 +18 1016.3 937.8
1 н/о н/о +17.0 +16.4 96 +18 +18 1016.7 938.2
1 н/о н/о +17.5 +16.8 96 +19 +19 1017.1 938.7
нст 1 5000 м дымка 10/10 90 м
[Sc]
+17.7 +16.7 94 +19 +19 1017.7 939.3 +16.7 2.9
1 15 км в посл. час дождь 10/10 90 м
[Sc]
+18.2 +16.9 92 +20 +20 1017.7 939.4 0.3
2 35 км 4/4 600 м
[Cu med, cong Ac lent Ci fib]
+22.3 +17.9 76 +27 +35 душно 1016.2 939.1
нст 1 50 км {дождь} 3/3 240 м
[Cu med, cong Ac lent Ci fib]
+23.7 +17.5 68 +28 +40 душно 1015.7 939.0
2 50 км 3/3 900 м
[Cu med, cong Ac lent Ci fib]
+24.5 +17.5 65 +29 +41 душно 1015.5 939.0
1 50 км 4/4 900 м
[Cu med, cong Ac lent Ci fib]
+26.2 +17.6 59 +30 +43 душно 1015.1 939.0
нст 2 30 км {дождь} 6/6 900 м
[Cb cap Ac cuf Ci ing]
+26.9 +18.0 58 +31 +38 душно 1014.5 938.7
В 5 25 км гроза, ливневой дождь 9/9 900 м
[Cb cap Ac cuf Ci ing]
+22.1 +16.4 70 +26 +27 душно 1015.9 938.7 0.6
СВ 5 15 км гроза, ливневой дождь 9/9 900 м
[Cb cap Ac cuf Ci ing]
+18.4 +17.1 92 +19 +19 1017.3 939.1 6
С 6 20 км в посл. час гроза 9/9 150 м
[Cb cap Ac cuf Ci ing]
+17.1 +15.8 92 +16 +16 1019.0 940.3 0.2
2 10 км гроза, ливневой дождь 9/9 700 м
[Cb cap]
+16.8 +16.2 96 +17 +17 1019.2 940.4 0.2
1 15 км слаб. ливневой дождь, в посл. час гроза 9/9 90 м
[Cb cap Ac cuf Ci ing]
+17.8 +17.5 98 +19 +19 1018.7 940.3 6
СЗ 3 12 км в посл. час ливневой дождь {гроза} 8/5 90 м
[Sc diur, vesp Ac lent Ci fib]
+17.2 +16.7 97 +17 +17 1018.9 940.3 +27.8 0.1
ЮЗ 1 12 км 10/10 90 м
[Sc]
+17.3 +17.0 98 +18 +18 1019.3 940.7
нст 1 30 км 1/1 90 м
[Cu hum Ac lent]
+16.8 +16.5 98 +18 +18 1019.3 940.5
В 2 н/о н/о +16.7 +16.5 99 +17 +17 1019.8 941.0 0.1
нст 1 н/о н/о +17.3 +17.0 98 +18 +18 1019.9 941.2
нст 1 н/о н/о +16.0 +15.5 97 +17 +17 1020.1 941.0
нст 1 н/о н/о +15.1 +14.8 98 +16 +16 1020.6 941.2
В 1 н/о н/о +15.5 +15.3 99 +16 +16 1020.6 941.3
нст 1 н/о н/о +15.3 +15.1 99 +16 +16 1020.6 941.3
В 1 н/о н/о +14.8 +14.6 99 +15 +15 1021.0 941.5
нст 1 н/о н/о +15.1 +14.9 99 +16 +16 1021.0 941.6
нст 1 н/о н/о +15.5 +15.3 99 +16 +16 1021.1 941.8
нст 1 100 м туман, небо видно 10/10 60 м
[St]
+16.1 +15.8 98 +17 +17 1021.0 941.9 +14.6 12.9
нст 1 600 м туман, небо видно 10/10 90 м
[St]
+17.1 +16.3 95 +18 +18 1020.8 942.0
нст 1 25 км в посл. час туман 4/4 90 м
[Cu med, cong Ci fib]
+20.1 +17.7 86 +24 +33 комфорт 1019.8 941.9
нст 1 50 км {туман} 1/1 1000 м
[Cu hum Ci fib]
+23.7 +19.2 76 +29 +45 душно 1018.7 941.8
нст 1 50 км 1/1 1000 м
[Cu hum Ci fib]
+26.1 +19.8 68 +32 +50 очень душно 1017.8 941.6
нст 2 50 км 1/1 1000 м
[Cu med, cong Ci fib]
+27.1 +17.6 56 +31 +47 душно 1017.3 941.3
нст 1 50 км {туман} 1/1 1000 м
[Cu med, cong Ci fib]
+27.7 +17.6 54 +32 +49 очень душно 1016.9 941.1
нст 2 50 км 3/3 1200 м
[Cu med, cong Ac lent Ci fib]
+28.7 +18.5 54 +34 +43 очень душно 1016.4 940.9
нст 1 50 км 3/3 1200 м
[Cb cap Ac cuf Ci ing]
+29.3 +18.1 51 +34 +42 очень душно 1016.0 940.6
В 2 35 км гроза без осадков 8/6 1200 м
[Cb cap Ac cuf Ci ing]
+27.1 +18.7 60 +32 +34 очень душно 1016.2 940.3
нст 2 25 км слаб. ливневой дождь, в посл. час гроза 8/6 1200 м
[Cb cap Ac cuf Ci ing]
+23.5 +20.2 82 +29 +30 душно 1017.7 940.9 0.0
нст 2 35 км в посл. час ливневой дождь 5/4 1200 м
[Cb calv Ac cuf Ci sp]
+26.2 +19.4 66 +32 +32 очень душно 1017.1 941.0 0.0
В 2 40 км {гроза, ливн. дождь} 4/3 1200 м
[Cu med, cong Ac lent Ci sp]
+23.9 +19.4 76 +29 +29 душно 1017.5 940.8 +29.5
СВ 2 35 км 1/0
[Ac lent Ci sp]
+21.4 +18.8 85 +26 +26 душно 1018.5 941.0
В 2 35 км 1/0
[Ac lent Ci fib]
+20.0 +18.5 91 +24 +24 комфорт 1019.1 941.2
В 2 н/о н/о +18.8 +17.8 94 +21 +21 комфорт 1019.2 941.0
1 н/о н/о +18.0 +17.2 95 +19 +19 1019.7 941.2
штиль 0 н/о н/о +17.4 +16.9 97 +17 +17 1019.8 941.2
В 2 н/о н/о +16.4 +15.9 97 +16 +16 1020.1 941.1
В 1 н/о н/о +16.2 +15.7 97 +17 +17 1019.9 940.9
В 1 н/о н/о +16.1 +15.8 98 +17 +17 1019.9 940.9
В 2 н/о н/о +15.3 +14.8 97 +15 +15 1020.1 940.8
1 н/о н/о +16.5 +16.0 97 +17 +17 1019.7 940.8
штиль 0 н/о н/о +19.3 +17.3 88 +21 +21 комфорт 1018.8 940.7
нст 1 35 км 1/1 150 м
[St Ci fib]
+20.8 +17.6 82 +26 +31 душно 1018.4 940.8 +15.3
1 35 км 1/1 1200 м
[Cu hum Ci fib]
+23.9 +19.0 74 +29 +38 душно 1017.6 940.8
2 35 км 1/1 1200 м
[Cu hum Ci fib]
+26.1 +18.5 63 +31 +42 очень душно 1016.8 940.6
нст 1 40 км 1/1 1200 м
[Cu hum Ci fib]
+28.9 +18.7 54 +34 +50 очень душно 1015.8 940.4
2 40 км 1/1 1200 м
[Cu hum Ci fib]
+30.2 +17.7 47 +34 +50 очень душно 1015.4 940.3
2 50 км 1/1 1200 м
[Cu hum Ci fib]
+30.5 +17.9 47 +35 +51 опасность солнечного удара 1015.1 940.1
нст 2 50 км 1/1 1200 м
[Cu med, cong Ci fib]
+30.9 +16.5 42 +34 +49 душно 1014.5 939.6
2 50 км 1/1 1200 м
[Cb calv Ac cuf Ci fib]
+31.2 +17.2 43 +35 +47 очень душно 1013.9 939.1
2 30 км 5/5 1200 м
[Cb cap Ac cuf Ci ing]
+31.4 +17.0 42 +35 +40 очень душно 1013.5 938.8
В 2 15 км гроза без осадков {ливн. дождь} 8/8 1200 м
[Cb cap Ac cuf Ci ing]
+26.1 +18.5 63 +31 +32 очень душно 1014.5 938.5 2
1 40 км в посл. час гроза 8/5 1300 м
[Cu med, cong Ac cuf Ci ing]
+25.6 +20.6 74 +32 +33 очень душно 1014.4 938.4
В 2 40 км 6/3 1300 м
[Cu med, cong Ac cuf Ci ing]
+25.0 +21.5 81 +32 +33 очень душно 1014.4 938.3
В 2 40 км {гроза, ливн. дождь} 4/1 1200 м
[Cu med, cong Ac lent Ci sp]
+25.3 +20.1 73 +31 +31 очень душно 1014.5 938.4 +32.2
В 2 30 км 3/1 1300 м
[Cu hum Ac lent Ci sp]
+20.9 +18.3 85 +26 +26 душно 1016.4 939.0
В 2 н/о н/о +19.4 +17.4 88 +22 +22 комфорт 1017.0 939.1
В 2 н/о н/о +18.4 +16.7 90 +20 +20 1017.5 939.3
В 2 н/о н/о +17.8 +16.3 91 +18 +18 1018.1 939.7
В 3 н/о н/о +17.9 +16.2 90 +18 +18 1017.4 939.0
1 н/о н/о +17.5 +16.0 91 +19 +19 1017.0 938.6
1 н/о н/о +17.0 +15.9 93 +18 +18 1017.3 938.7
В 2 н/о н/о +16.5 +15.7 95 +17 +17 1017.2 938.5
1 н/о н/о +17.9 +16.4 91 +19 +19 1017.1 938.8
1 н/о н/о +20.6 +18.2 86 +26 +26 душно 1016.6 939.1
С 3 30 км 6/4 1200 м
[Cu med, cong Ac cuf Ci ing]
+23.6 +19.6 78 +29 +31 душно 1015.2 938.6 +16.4 1.8
1 40 км 9/1 1300 м
[Cu med, cong Cs]
+25.7 +19.6 69 +31 +39 очень душно 1014.8 938.7
1 50 км 9/1 1380 м
[Cu med, cong Ac trans Cs]
+26.3 +19.7 67 +32 +39 очень душно 1014.5 938.6
нст 1 55 км 9/3 1380 м
[Cu med, cong Ac lent Ci sp]
+26.7 +19.8 66 +33 +40 очень душно 1014.3 938.5
1 50 км 9/8 1380 м
[Cb cap Ac cuf Ci ing]
+27.9 +20.7 65 +35 +38 очень душно 1013.5 938.1
В 5 35 км гроза без осадков 9/9 1300 м
[Cb cap Ac cuf Ci ing]
+23.3 +17.1 68 +28 +29 душно 1015.5 938.7
нст 2 40 км в посл. час гроза {ливн. дождь} 9/9 1300 м
[Cb cap Ac cuf Ci ing]
+24.2 +17.7 67 +28 +30 душно 1016.0 939.4 0.0
2 8000 м гроза, ливневой дождь 10/9 1200 м
[Cb cap Ac cuf]
+20.9 +17.5 81 +25 +26 комфорт 1017.1 939.6 0.0
СВ 2 35 км слаб. ливневой дождь, в посл. час гроза 9/8 1080 м
[Cb cap Ac cuf Ci ing]
+19.6 +17.9 90 +23 +24 комфорт 1017.1 939.3 0.7
В 2 35 км слаб. ливневой дождь {гроза} 9/8 400 м
[Cb cap Ac cuf Ci ing]
+19.6 +18.6 94 +23 +24 комфорт 1017.1 939.3 0.0
1 35 км в посл. час ливневой дождь 9/6 1200 м
[Cb cap Ac cuf Ci ing]
+22.1 +18.1 78 +27 +28 душно 1016.1 939.0 0.0
З 2 45 км в посл. час ливневой дождь 9/5 1230 м
[Cb cap Ac cuf Ci ing]
+20.3 +18.6 90 +24 +25 комфорт 1016.8 939.2 0.1
ЮЗ 2 15 км гроза без осадков {ливн. дождь} 9/8 300 м
[Cb cap Ac cuf Ci ing]
+20.0 +18.5 91 +24 +24 комфорт 1016.8 939.1 +29.8 0.1
З 2 35 км в посл. час гроза {ливн. дождь} 8/5 1380 м
[Sc diur, vesp Ac cuf Ci ing]
+19.4 +18.1 92 +22 +22 комфорт 1015.9 938.1 0.1
ЮЗ 2 25 км 6/4 1500 м
[Sc Ac lent Ci fib]
+18.8 +17.8 94 +21 +21 комфорт 1016.3 938.3
нст 1 н/о н/о +18.1 +17.6 97 +19 +19 1016.6 938.4
1 н/о н/о +17.3 +16.5 95 +18 +18 1016.7 938.3
1 н/о н/о +16.1 +15.6 97 +17 +17 1017.7 938.8 0.1
нст 1 н/о н/о +16.3 +16.1 99 +17 +17 1017.4 938.6
1 н/о н/о +15.9 +15.7 99 +17 +17 1017.3 938.4
1 н/о н/о +15.8 +15.6 99 +16 +16 1016.9 938.0
нст 1 н/о н/о +15.8 +15.6 99 +16 +16 1016.9 938.0
2 н/о н/о +15.2 +15.0 99 +15 +15 1017.1 938.0
С 2 н/о н/о +16.5 +16.2 98 +17 +17 1016.3 937.7
нст 2 1800 м туман на расстоянии 4/4 120 м
[St Ci fib]
+18.4 +16.7 90 +20 +23 1016.3 938.2 +15.2 1.8
ЮЗ 2 7000 м туман на расстоянии 9/3 150 м
[St Ac trans Ci fib]
+19.0 +17.5 91 +21 +25 комфорт 1015.8 937.9
ЮЗ 1 35 км 9/1 240 м
[Cu med, cong Ac lent Cs]
+21.0 +18.2 84 +26 +34 душно 1014.9 937.6
нст 1 45 км 8/1 1380 м
[Cu med, cong Ac lent Cs]
+24.0 +19.9 78 +29 +39 душно 1013.4 937.0
2 45 км 9/1 1380 м
[Cu med, cong Cs]
+25.5 +19.9 71 +31 +44 очень душно 1012.7 936.7
В 3 40 км 9/1 1380 м
[Cu med, cong Cs]
+28.1 +19.1 58 +33 +44 очень душно 1011.4 936.1
В 5 45 км 9/3 1500 м
[Cu med, cong Cs]
+28.2 +18.6 56 +33 +38 очень душно 1010.7 935.5
В 3 50 км 9/6 1380 м
[Cb cap Ac cuf Ci ing]
+27.9 +19.7 61 +34 +37 очень душно 1010.1 934.9
В 2 40 км 8/4 1380 м
[Cb calv Ac cuf Ci ing]
+29.9 +18.4 50 +35 +39 очень душно 1008.4 933.8
нст 2 45 км 8/5 1380 м
[Cb calv Ac cuf Ci ing]
+28.3 +18.7 56 +33 +36 очень душно 1008.6 933.6
ЮЗ 3 45 км 6/4 1380 м
[Cb calv Ac cuf Ci ing]
+29.1 +18.3 52 +34 +35 очень душно 1008.0 933.2
ЮЗ 4 45 км 6/3 1500 м
[Sc diur, vesp Ac cuf Ci ing]
+28.2 +16.2 48 +31 +32 душно 1007.7 932.6
нст 1 40 км 9/3 1500 м
[Sc diur, vesp Ac lent Cs]
+25.7 +16.8 58 +29 +30 душно 1007.9 932.2 +30.3
2 25 км 10/3 1380 м
[Cb cap Ac cuf Cs]
+23.3 +17.8 71 +29 +29 душно 1008.0 931.8
Ю 6 17 км гроза, ливневой дождь 10/8 1140 м
[Cb cap Ac cuf]
+21.4 +15.7 70 +25 +25 комфорт 1008.4 931.6 0.8
З 2 н/о н/о +20.8 +17.2 80 +25 +25 комфорт 1009.9 932.9 0.1
1 н/о н/о +19.7 +17.8 89 +23 +23 комфорт 1009.0 931.8 1
2 н/о н/о +18.8 +17.3 91 +21 +21 комфорт 1009.4 931.9
В 2 н/о н/о +18.1 +17.1 94 +19 +19 1009.0 931.4 0.1
В 2 н/о н/о +17.7 +16.7 94 +18 +18 1008.8 931.1
В 1 н/о н/о +17.3 +16.6 96 +18 +18 1008.8 931.0
нст 1 н/о н/о +17.1 +16.6 97 +18 +18 1008.9 931.0
2 н/о н/о +18.1 +17.6 97 +19 +19 1009.2 931.6
нст 2 17 км 9/9 120 м
[Cu med, cong]
+19.6 +18.1 91 +23 +23 комфорт 1009.5 932.3 +16.7 2.1
З 5 40 км 1/1 1140 м
[Cu med, cong Ci sp]
+22.9 +18.9 78 +29 +33 очень душно 1008.7 932.4
ЮЗ 4 40 км 1/1 900 м
[Cu med, cong Ci fib]
+24.8 +19.4 72 +30 +37 душно 1008.5 932.7
ЮЗ 5 40 км 1/1 900 м
[Cu med, cong Ac lent Ci fib]
+26.1 +19.0 65 +31 +38 очень душно 1008.4 932.9
Местоположение метеостанции Лиешек (Словакия): широта 49.37 долгота 19.68 высота над уровнем моря 693 м.
В архиве по умолчанию представлена погода в Лиешеке за последнюю неделю. Архивные данные за месяц целиком и за предыдущие месяцы, начиная с января 2011 года, Вы можете получить, выбрав интересующий диапазон дат из раскрывающегося списка и нажав кнопку "Найти!".
*Определитесь, кто Вы:
Внимание! Время в таблицах - всемирное. Для получения местного времени необходимо прибавить поправку, которая равна 1 ч.
Некоторые строки с данными для отдельных станций могут быть выделены курсивом. Это означает, что фактические данные отсутствуют по различным причинам, а приведенные значения являются расчетными модельными данными для данного пункта наблюдений.
Смотрите также архив погоды в соседних городах и на ближайших метеорологических станциях:
Партнеры нашего сайта:      
Пояснения к столбцам:
  • Ветер - указаны скорость ветра в м/с - средняя за 10 мин, порывы в срок и между сроками (в фигурных скобках) и направление, откуда дует ветер: С - северный,
  • СВ - северо-восточный, В - восточный, ЮВ - юго-восточный, Ю - южный, ЮЗ - юго-западный, З - западный, СЗ - северо-западный.
  • Видимость - горизонтальная дальность видимости в метрах или километрах. При видимости от 1 до 10 км при отсутствии осадков обычно наблюдается дымка, при ухудшении видимости до 1 км и менее - туман. В сухую погоду видимость может ухудшаться дымом, пылью или мглою.
  • Явления - указаны атмосферные явления, наблюдавшиеся в срок или в последний час перед сроком; фигурными скобками обозначены явления, наблюдавшиеся между сроками (за 1-3 часа до срока); квадратными скобками обозначены град или гололедные отложения с указанием их диаметра в мм.
  • Облачность - указаны через наклонную черту общая и нижняя облачность в баллах и высота нижней границы облаков в метрах; квадратными скобками обозначены формы облаков: Ci - перистые, Cs - перисто-слоистые, Cc - перисто-кучевые, Ac - высококучевые, As - высокослоистые, Sc - слоисто-кучевые, Ns - слоисто-дождевые, Cu - кучевые, Cb - кучево-дождевые. Подробнее классификацию облаков см. в Атласе облаков (PDF).
  • T - Температура воздуха - температура, измеренная на высоте 2 м над землей.
  • Td - Температура точки росы - температура, при понижении до которой содержащийся в воздухе водяной пар достигнет насыщения.
  • f - Относительная влажность воздуха - влажноcть воздуха, измеренная на высоте 2 м над землей.
  • Te - Эффективная температура - температура, которую ощущает одетый по сезону человек в тени. Характеристика душности погоды. При расчете учитывается влияние влажности воздуха и скорости ветра на теплоощущения человека.
  • Tes - Эффективная температура на солнце - температура, которую ощущает человек, с поправкой на солнечный нагрев. Характеристика знойности погоды. Зависит от высоты солнца над горизонтом, облачности и скорости ветра. Ночью, в пасмурную погоду, а также при ветре 12 м/с и более поправка равна нулю.
  • P - Атмосферное давление - приведенное к уровню моря атмосферное давление.
  • Po - Атмосферное давление - измеренное на уровне метеостанции атмосферное давление.
  • Tmin - Минимальная температура - минимум температуры воздуха на высоте 2 м над землей.
  • Tmax - Максимальная температура - максимум температуры воздуха на высоте 2 м над землей.
  • R - Количество осадков - Количество выпавших осадков за период времени, мм. При наведении курсора мыши на число - период времени, за который выпало указанное количество осадков.
  • R24 - Количество осадков - Количество выпавших осадков за 24 часа, мм.
  • S - Снежный покров - Высота снежного покрова, см. При наведении курсора мыши на число - состояние снежного покрова и степень покрытия местности в баллах.